This demonstration page uses our WeatherBlox Daily Observations layout. Learn more.

38.88101, -77.10428

Hourly Observations for September 8, 2018

Temp ( °F °C ) Dew Point ( °F °C ) Humidity (%) Winds ( mph kmh ) Pressure ( in mb ) Visibility ( mi km ) Precip ( " mm )
12:36 am 00:36 Cloudy 75 23.9 70 21.1 84 84 N 8 13 30.09 1019 10 16.0934 0 0
12:52 am 00:52 Cloudy 75 23.9 70 21.1 84 84 NNE 7 11 30.07 1018 10 16.0934 0 0
1:52 am 01:52 Cloudy 75 23.9 71 21.7 88 88 Calm 30.07 1018 10 16.0934 0 0.0254
2:12 am 02:12 Cloudy 75 23.9 70 21.1 84 84 NNW 8 13 30.06 1018 10 16.0934 0 0
2:52 am 02:52 Cloudy 75 23.9 71 21.7 88 88 N 3 6 30.04 1017 10 16.0934 0 0
3:52 am 03:52 Mostly Cloudy 74 23.3 71 21.7 91 91 N 7 11 30.03 1017 10 16.0934 0 0
4:52 am 04:52 Cloudy 74 23.3 71 21.7 91 91 NNW 6 9 30.02 1017 10 16.0934 0 0
5:23 am 05:23 Cloudy 74 23.3 71 21.7 91 91 NNW 8 13 30.03 1017 10 16.0934 0 0
5:52 am 05:52 Cloudy 74 23.3 71 21.7 91 91 N 6 9 30.02 1017 10 16.0934 0 0
6:52 am 06:52 Cloudy 75 23.9 71 21.7 88 88 NNW 8 13 30.03 1017 10 16.0934 0 0
7:37 am 07:37 Cloudy 76 24.4 72 22.2 88 88 N 8 13 30.03 1017 10 16.0934 0 0
7:52 am 07:52 Cloudy 76 24.4 72 22.2 88 88 N 9 15 30.03 1017 10 16.0934 0 0
8:23 am 08:23 Cloudy 76 24.4 72 22.2 88 88 N 9 15 30.03 1017 10 16.0934 0 0
8:52 am 08:52 Cloudy 76 24.4 72 22.2 88 88 NNE 10 17 30.03 1017 10 16.0934 0 0
9:07 am 09:07 Cloudy 76 24.4 72 22.2 88 88 NNE 12 19 30.03 1017 10 16.0934 0 0
9:34 am 09:34 Cloudy 73 22.8 68 20 84 84 NE 14 22 30.03 1017 10 16.0934 0 0
9:45 am 09:45 Mostly Cloudy 74 23.3 68 20 82 82 NE 17 28 30.06 1018 10 16.0934 0 0
9:52 am 09:52 Mostly Cloudy 74 23.3 68 20 82 82 NE 17 28 30.05 1018 10 16.0934 0 0
10:52 am 10:52 Cloudy 74 23.3 68 20 82 82 NE 15 24 30.05 1018 10 16.0934 0 0
11:52 am 11:52 Cloudy 73 22.8 67 19.4 81 81 ENE 15 24 30.06 1018 10 16.0934 0 0
12:52 pm 12:52 Cloudy 73 22.8 66 18.9 79 79 NNE 12 19 30.06 1018 10 16.0934 0 0
1:52 pm 13:52 Cloudy with Light Rain 71 21.7 66 18.9 84 84 NNE 14 22 30.06 1018 6 9.65604 0.01 0.254
2:22 pm 14:22 Cloudy with Heavy Rain 70 21.1 66 18.9 87 87 N 14 22 30.06 1018 2.5 4.02335 0.06 1.524
2:30 pm 14:30 Cloudy with Light Rain 70 21.1 66 18.9 87 87 N 13 20 30.06 1018 4 6.43736 0.11 2.794
2:44 pm 14:44 Cloudy with Heavy Rain 70 21.1 66 18.9 87 87 NNW 13 20 30.06 1018 3 4.82802 0.13 3.302
2:52 pm 14:52 Cloudy with Rain 69 20.6 65 18.3 87 87 NNW 17 28 30.06 1018 3 4.82802 0.15 3.81
3:06 pm 15:06 Cloudy with Light Rain 68 20 65 18.3 90 90 N 17 28 30.06 1018 2.5 4.02335 0.01 0.254
3:11 pm 15:11 Cloudy with Light Rain 68 20 64 17.8 87 87 N 18 30 30.06 1018 2.5 4.02335 0.01 0.254
3:18 pm 15:18 Cloudy with Light Rain 68 20 64 17.8 87 87 N 17 28 30.06 1018 3 4.82802 0.02 0.508
3:36 pm 15:36 Cloudy with Light Rain 68 20 65 18.3 90 90 N 18 30 30.06 1018 5 8.0467 0.02 0.508
3:44 pm 15:44 Cloudy with Light Rain 69 20.6 65 18.3 87 87 NNE 16 26 30.06 1018 5 8.0467 0.02 0.508
3:52 pm 15:52 Cloudy with Light Rain 68 20 64 17.8 87 87 NE 17 28 30.06 1018 6 9.65604 0.02 0.508
4:52 pm 16:52 Cloudy with Light Rain 67 19.4 63 17.2 87 87 NNE 17 28 30.06 1018 10 16.0934 0.02 0.508
5:03 pm 17:03 Cloudy 67 19.4 63 17.2 87 87 NNE 21 33 30.06 1018 10 16.0934 0 0.0254
5:52 pm 17:52 Cloudy 66 18.9 61 16.1 84 84 NE 21 33 30.06 1018 10 16.0934 0 0.0254
6:52 pm 18:52 Cloudy with Light Rain 66 18.9 61 16.1 84 84 NE 12 19 30.08 1019 8 12.87472 0 0.0254
7:52 pm 19:52 Cloudy 66 18.9 62 16.7 87 87 NE 13 20 30.07 1018 10 16.0934 0 0.0254
8:04 pm 20:04 Cloudy 66 18.9 61 16.1 84 84 NNE 12 19 30.09 1019 10 16.0934 0 0
8:52 pm 20:52 Cloudy 66 18.9 62 16.7 87 87 NNE 10 17 30.08 1019 10 16.0934 0 0
9:44 pm 21:44 Cloudy with Light Rain 66 18.9 61 16.1 84 84 NE 15 24 30.09 1019 10 16.0934 0.01 0.254
9:52 pm 21:52 Cloudy with Light Rain 66 18.9 61 16.1 84 84 NNE 13 20 30.09 1019 10 16.0934 0.01 0.254
10:52 pm 22:52 Cloudy with Light Rain 65 18.3 60 15.6 84 84 NE 13 20 30.09 1019 5 8.0467 0.01 0.254
11:52 pm 23:52 Cloudy with Light Rain 64 17.8 60 15.6 87 87 NNE 13 20 30.09 1019 10 16.0934 0.01 0.254

Powered by AerisWeather